TimeCDT,TemperatureF,Dew PointF,Humidity,Sea Level PressureIn,VisibilityMPH,Wind Direction,Wind SpeedMPH,Gust SpeedMPH,PrecipitationIn,Events,Conditions,WindDirDegrees,DateUTC
12:13 AM,44.6,26.6,49,29.81,10.0,NNE,10.4,-,N/A,,Scattered Clouds,30,2012-10-11 05:13:00
12:34 AM,44.6,26.6,49,29.82,10.0,NE,8.1,-,N/A,,Scattered Clouds,40,2012-10-11 05:34:00
12:53 AM,44.6,28.4,53,29.82,10.0,NNE,9.2,-,N/A,,Scattered Clouds,20,2012-10-11 05:53:00
1:13 AM,42.8,30.2,61,29.83,10.0,NNE,9.2,-,N/A,,Light Drizzle,20,2012-10-11 06:13:00
1:34 AM,41.0,30.2,65,29.84,10.0,North,9.2,-,N/A,,Light Drizzle,10,2012-10-11 06:34:00
2:13 AM,39.2,32.0,75,29.86,10.0,North,9.2,-,N/A,,Mostly Cloudy,360,2012-10-11 07:13:00
2:33 AM,39.2,33.8,81,29.88,10.0,North,13.8,-,N/A,Rain,Light Rain,360,2012-10-11 07:33:00
2:53 AM,37.4,35.6,93,29.89,10.0,North,12.7,-,N/A,,Light Drizzle,360,2012-10-11 07:53:00
3:14 AM,37.4,35.6,93,29.91,10.0,North,13.8,19.6,N/A,,Scattered Clouds,360,2012-10-11 08:14:00
3:33 AM,37.4,35.6,93,29.91,10.0,North,13.8,19.6,N/A,,Mostly Cloudy,10,2012-10-11 08:33:00
3:53 AM,37.4,35.6,93,29.92,10.0,North,10.4,-,N/A,,Overcast,10,2012-10-11 08:53:00
4:14 AM,37.4,33.8,87,29.94,10.0,North,9.2,-,N/A,,Mostly Cloudy,360,2012-10-11 09:14:00
4:33 AM,37.4,35.6,93,29.96,10.0,North,12.7,-,N/A,,Scattered Clouds,350,2012-10-11 09:33:00
4:53 AM,37.4,33.8,87,29.97,10.0,North,15.0,19.6,N/A,,Mostly Cloudy,350,2012-10-11 09:53:00
5:33 AM,37.4,33.8,87,30.00,10.0,North,13.8,18.4,N/A,,Scattered Clouds,350,2012-10-11 10:33:00
5:53 AM,37.4,33.8,87,29.99,10.0,North,12.7,-,N/A,,Scattered Clouds,360,2012-10-11 10:53:00
6:14 AM,37.4,33.8,87,30.01,10.0,North,11.5,18.4,N/A,,Scattered Clouds,350,2012-10-11 11:14:00
6:33 AM,37.4,33.8,87,30.03,10.0,North,10.4,18.4,N/A,,Clear,350,2012-10-11 11:33:00
6:53 AM,37.4,32.0,81,30.04,10.0,North,12.7,-,N/A,,Clear,350,2012-10-11 11:53:00
7:33 AM,35.6,33.8,93,30.07,10.0,NNW,8.1,-,N/A,,Clear,340,2012-10-11 12:33:00
7:53 AM,37.4,32.0,81,30.08,10.0,NNW,9.2,-,N/A,,Clear,330,2012-10-11 12:53:00
8:14 AM,35.6,32.0,87,30.10,10.0,North,10.4,-,N/A,,Clear,350,2012-10-11 13:14:00
8:33 AM,37.4,33.8,87,30.12,10.0,NNW,11.5,-,N/A,,Scattered Clouds,340,2012-10-11 13:33:00
8:53 AM,37.4,32.0,81,30.14,10.0,NNW,11.5,-,N/A,,Clear,330,2012-10-11 13:53:00
9:13 AM,39.2,30.2,70,30.15,10.0,NNW,9.2,-,N/A,,Clear,340,2012-10-11 14:13:00
9:33 AM,39.2,28.4,65,30.16,10.0,North,11.5,-,N/A,,Scattered Clouds,360,2012-10-11 14:33:00
9:54 AM,39.2,26.6,61,30.17,10.0,North,13.8,-,N/A,,Clear,350,2012-10-11 14:54:00
10:13 AM,41.0,26.6,57,30.18,10.0,North,10.4,-,N/A,,Clear,360,2012-10-11 15:13:00
10:33 AM,41.0,24.8,53,30.19,10.0,NNW,15.0,-,N/A,,Clear,340,2012-10-11 15:33:00
10:54 AM,42.8,24.8,49,30.19,10.0,North,16.1,21.9,N/A,,Clear,350,2012-10-11 15:54:00
11:13 AM,42.8,23.0,46,30.20,10.0,North,16.1,24.2,N/A,,Clear,350,2012-10-11 16:13:00
11:33 AM,41.0,21.2,45,30.20,10.0,NNW,18.4,25.3,N/A,,Clear,330,2012-10-11 16:33:00
11:54 AM,42.8,21.2,42,30.21,10.0,NNW,15.0,24.2,N/A,,Clear,340,2012-10-11 16:54:00
12:13 PM,42.8,21.2,42,30.22,10.0,NNW,16.1,23.0,N/A,,Clear,340,2012-10-11 17:13:00
12:33 PM,42.8,21.2,42,30.22,10.0,NW,12.7,19.6,N/A,,Clear,320,2012-10-11 17:33:00
12:54 PM,42.8,19.4,39,30.23,10.0,NNW,13.8,24.2,N/A,,Clear,340,2012-10-11 17:54:00
1:13 PM,46.4,21.2,37,30.22,10.0,NNW,16.1,20.7,N/A,,Clear,330,2012-10-11 18:13:00
1:33 PM,44.6,21.2,39,30.22,10.0,NNW,13.8,21.9,N/A,,Clear,340,2012-10-11 18:33:00
1:54 PM,46.4,17.6,32,30.22,10.0,NNW,19.6,25.3,N/A,,Clear,340,2012-10-11 18:54:00
2:13 PM,46.4,19.4,34,30.23,10.0,NW,15.0,21.9,N/A,,Clear,320,2012-10-11 19:13:00
2:33 PM,46.4,19.4,34,30.23,10.0,NNW,15.0,23.0,N/A,,Clear,340,2012-10-11 19:33:00
3:13 PM,44.6,19.4,37,30.24,10.0,NNW,16.1,23.0,N/A,,Clear,340,2012-10-11 20:13:00
3:33 PM,44.6,17.6,34,30.25,10.0,NW,13.8,24.2,N/A,,Clear,320,2012-10-11 20:33:00
3:54 PM,44.6,21.2,39,30.25,10.0,WNW,16.1,20.7,N/A,,Clear,300,2012-10-11 20:54:00
4:13 PM,44.6,19.4,37,30.26,10.0,NW,11.5,17.3,N/A,,Clear,320,2012-10-11 21:13:00
4:33 PM,44.6,19.4,37,30.26,10.0,NW,13.8,-,N/A,,Clear,310,2012-10-11 21:33:00
4:54 PM,44.6,21.2,39,30.27,10.0,NNW,13.8,17.3,N/A,,Clear,330,2012-10-11 21:54:00
5:13 PM,42.8,21.2,42,30.27,10.0,NW,12.7,-,N/A,,Clear,310,2012-10-11 22:13:00
5:33 PM,42.8,19.4,39,30.28,10.0,NW,12.7,-,N/A,,Clear,310,2012-10-11 22:33:00
6:34 PM,37.4,19.4,48,30.30,10.0,NW,8.1,-,N/A,,Clear,320,2012-10-11 23:34:00
6:53 PM,35.6,19.4,52,30.30,10.0,NW,5.8,-,N/A,,Clear,320,2012-10-11 23:53:00
7:13 PM,33.8,19.4,56,30.31,10.0,NW,5.8,-,N/A,,Clear,320,2012-10-12 00:13:00
7:34 PM,33.8,19.4,56,30.32,10.0,NW,5.8,-,N/A,,Clear,320,2012-10-12 00:34:00
8:13 PM,32.0,19.4,60,30.33,10.0,NW,3.5,-,N/A,,Clear,320,2012-10-12 01:13:00
8:34 PM,32.0,19.4,60,30.33,10.0,NNW,4.6,-,N/A,,Clear,330,2012-10-12 01:34:00
8:53 PM,30.2,19.4,64,30.34,10.0,NNW,5.8,-,N/A,,Clear,330,2012-10-12 01:53:00
9:13 PM,30.2,19.4,64,30.35,10.0,NNW,5.8,-,N/A,,Clear,330,2012-10-12 02:13:00
10:13 PM,32.0,21.2,64,30.37,10.0,NNW,3.5,-,N/A,,Clear,330,2012-10-12 03:13:00
10:34 PM,30.2,21.2,69,30.38,10.0,Calm,Calm,-,N/A,,Clear,0,2012-10-12 03:34:00
11:13 PM,28.4,21.2,74,30.39,10.0,Calm,Calm,-,N/A,,Clear,0,2012-10-12 04:13:00
11:34 PM,28.4,21.2,74,30.39,10.0,Calm,Calm,-,N/A,,Clear,0,2012-10-12 04:34:00